Regional Weather Roundup
Issued by NWS

Home | Current Version | Previous Version | Text Only | Print | Product List | Glossary Off
Versions: 1 2 3 4 5 6 7 8 9 10 11 12 13 14 15 16 17 18 19 20 21 22 23 24 25 26 27 28 29 30 31 32 33 34 35 36 37 38 39 40 41 42 43 44 45 46 47 48 49 50

000
ASUS43 KMKX 051821
RWRWI

WISCONSIN REGIONAL WEATHER ROUNDUP
NATIONAL WEATHER SERVICE MILWAUKEE/SULLIVAN WI
100 PM CDT SUN JUL 05 2015

NOTE: "FAIR" INDICATES FEW OR NO CLOUDS BELOW 12,000 FEET WITH NO
SIGNIFICANT WEATHER AND/OR OBSTRUCTIONS TO VISIBILITY.

WIZ001-002-006>008-014>016-023>028-051900-
NORTHWEST WISCONSIN

CITY           SKY/WX    TMP DP  RH WIND       PRES   REMARKS
SUPERIOR ARPT  CLOUDY    82  66  59 SW12G18   29.86R HX  84
6HR MIN TEMP:  54; 6HR MAX TEMP:  82;

ASHLAND        PTSUNNY   81  63  54 SW15G23   29.89F HX  82
6HR MIN TEMP:  65; 6HR MAX TEMP:  82;

HAYWARD        MOSUNNY   79  61  53 S18G25    29.93S HX  80
6HR MIN TEMP:  67; 6HR MAX TEMP:  80;

SIREN          MOSUNNY   82  63  51 S15G23    29.90S HX  83
6HR MIN TEMP:  66; 6HR MAX TEMP:  82;

CUMBERLAND     PTSUNNY   77  63  61 S13G18    29.93F
RICE LAKE      PTSUNNY   80  61  52 S12G20    29.95S HX  81
6HR MIN TEMP:  64; 6HR MAX TEMP:  80;

CHETEK         PTSUNNY   78  64  60 SE13      29.94F HX  80
LADYSMITH      PTSUNNY   80  63  57 S16       29.97F HX  81
6HR MIN TEMP:  64; 6HR MAX TEMP:  80;

EAU CLAIRE     MOSUNNY   82  63  52 S10       29.94S HX  83
6HR MIN TEMP:  66; 6HR MAX TEMP:  82;

MENOMONIE      PTSUNNY   81  65  57 S14       29.94S HX  83
6HR MIN TEMP:  64; 6HR MAX TEMP:  81;

NEW RICHMOND   PTSUNNY   79  64  60 S15G21    29.91F HX  80
6HR MIN TEMP:  65; 6HR MAX TEMP:  79;

OSCEOLA        PTSUNNY   80  66  60 SE15      29.92S HX  82
6HR MIN TEMP:  65; 6HR MAX TEMP:  80;

$$

WIZ003>005-009-010-017-018-051900-
NORTH CENTRAL WISCONSIN

CITY           SKY/WX    TMP DP  RH WIND       PRES   REMARKS
MANITOWISH WTR MOSUNNY   77  61  56 SW13G20   29.97S
6HR MIN TEMP:  63; 6HR MAX TEMP:  77;

ARBOR VITAE    MOSUNNY   80  61  53 S17       29.98F HX  81
6HR MIN TEMP:  64; 6HR MAX TEMP:  80;

WOODRUFF       MOSUNNY   80  61  53 S17       29.98F HX  81
6HR MIN TEMP:  64; 6HR MAX TEMP:  80;

RHINELANDER    SUNNY     79  57  46 S17G23    30.01F HX  80
6HR MIN TEMP:  64; 6HR MAX TEMP:  80;

EAGLE RIVER    MOSUNNY   77  57  50 SW10G16   29.98F
LAND O LAKES   SUNNY     79  57  46 S10G22    29.99F HX  80
6HR MIN TEMP:  63; 6HR MAX TEMP:  79;

PHILLIPS       MOSUNNY   78  62  56 S14       29.97F HX  80
6HR MIN TEMP:  64; 6HR MAX TEMP:  78;

TOMAHAWK       MOSUNNY   78  61  54 S7        30.00F HX  80
6HR MIN TEMP:  61; 6HR MAX TEMP:  79;

MEDFORD        PTSUNNY   77  62  59 S15G22    30.00F
6HR MIN TEMP:  62; 6HR MAX TEMP:  77;

MERRILL        MOSUNNY   78  62  57 SW9G17    30.01F HX  80
6HR MIN TEMP:  60; 6HR MAX TEMP:  78;

$$

WIZ029-030-035-036-043>047-051900-
CENTRAL WISCONSIN

CITY           SKY/WX    TMP DP  RH WIND       PRES   REMARKS
WAUSAU         MOSUNNY   80  58  46 S12G21    30.00F HX  80
6HR MIN TEMP:  66; 6HR MAX TEMP:  81;

MOSINEE        MOSUNNY   77  63  61 S12G17    30.03F
MARSHFIELD     MOSUNNY   80  60  50 S10G18    30.01S HX  81
6HR MIN TEMP:  63; 6HR MAX TEMP:  80;

STEVENS POINT  SUNNY     78  59  52 S10G16    30.02F
6HR MIN TEMP:  62; 6HR MAX TEMP:  78;

WAUPACA        SUNNY     83  60  46 S8        30.02F HX  83
6HR MIN TEMP:  62; 6HR MAX TEMP:  83;

WAUTOMA        MOSUNNY   83  61  47 W8        30.03F HX  83
6HR MIN TEMP:  59; 6HR MAX TEMP:  83;

WISC RAPIDS    MOSUNNY   80  60  50 SW9       30.03F HX  81
6HR MIN TEMP:  65; 6HR MAX TEMP:  80;

CAMP DOUGLAS   PTSUNNY   81  66  61 S9        30.01S HX  83
$$

WIZ011>013-019>022-031-037>040-048>050-051900-
NORTHEAST WISCONSIN

CITY           SKY/WX    TMP DP  RH WIND       PRES   REMARKS
ANTIGO         MOSUNNY   76  62  60 SW12      30.03F
SHAWANO        MOSUNNY   82  62  50 S5        30.02F HX  82
6HR MIN TEMP:  66; 6HR MAX TEMP:  82;

OCONTO         PTSUNNY   79  64  59 SE12G17   30.01F HX  81
6HR MIN TEMP:  63; 6HR MAX TEMP:  80;

STURGEON BAY   SUNNY     77  64  65 S8        30.06S
6HR MIN TEMP:  63; 6HR MAX TEMP:  77;

GREEN BAY      SUNNY     81  62  52 SW9       30.03F HX  82
6HR MIN TEMP:  65; 6HR MAX TEMP:  81;

MANITOWOC      SUNNY     76  64  66 MISG      30.05F
6HR MIN TEMP:  61; 6HR MAX TEMP:  78;

APPLETON       PTSUNNY   79  59  50 SW12      30.05F HX  80
CLINTONVILLE   MOSUNNY   81  59  47 S10       30.02F HX  81
OSHKOSH        MOSUNNY   79  63  57 S14G21    30.04F HX  80
6HR MIN TEMP:  66; 6HR MAX TEMP:  80;

$$

WIZ032>034-041-042-053>061-051900-
SOUTHWEST WISCONSIN

CITY           SKY/WX    TMP DP  RH WIND       PRES   REMARKS
LA CROSSE      MOSUNNY   83  63  50 S10       29.97F HX  84
6HR MIN TEMP:  66; 6HR MAX TEMP:  84;

SPARTA         MOSUNNY   83  58  43 S9        30.00F HX  83
6HR MIN TEMP:  58; 6HR MAX TEMP:  83;

VIROQUA        MOSUNNY   79  62  56 SW10G16   30.02F HX  81
6HR MIN TEMP:  63; 6HR MAX TEMP:  80;

BOSCOBEL       MOSUNNY   83  64  52 SW7       30.01F HX  84
6HR MIN TEMP:  61; 6HR MAX TEMP:  84;

PRAIRIE DU CHI MOSUNNY   81  62  51 SW5       30.00S HX  82
6HR MIN TEMP:  63; 6HR MAX TEMP:  81;

PLATTEVILLE    MOSUNNY   80  66  63 S12       30.04F HX  82
6HR MIN TEMP:  63; 6HR MAX TEMP:  80;

$$

WIZ056-057-062-063-064-067-068-051900-
SOUTH CENTRAL WISCONSIN

CITY           SKY/WX    TMP DP  RH WIND       PRES   REMARKS
REEDSBURG      MOSUNNY   81  65  57 S9        30.02F HX  83
6HR MIN TEMP:  62; 6HR MAX TEMP:  81;

BARABOO/DELLS  MOSUNNY   80  61  51 S9        30.03F HX  81
6HR MIN TEMP:  63; 6HR MAX TEMP:  80;

LONE ROCK      MOSUNNY   82  63  52 S8        30.02F HAZE    HX  83
6HR MIN TEMP:  60; 6HR MAX TEMP:  82;

MINERAL POINT  PTSUNNY   81  64  57 S8        30.05F HX  82
MADISON        MOSUNNY   81  62  52 S14       30.04F HX  82
6HR MIN TEMP:  66; 6HR MAX TEMP:  81;

MIDDLETON      MOSUNNY   81  61  50 S8        30.05F HX  82
6HR MIN TEMP:  65; 6HR MAX TEMP:  81;

WATERTOWN      PTSUNNY   78  64  61 S6        30.05F HX  80
6HR MIN TEMP:  60; 6HR MAX TEMP:  79;

MONROE         MOSUNNY   79  63  57 S10       30.06F HX  80
JANESVILLE     MOSUNNY   81  61  50 SW12      30.06F HX  81
$$

WIZ051-052-058>065-066-070>072-051900-
SOUTHEAST WISCONSIN

CITY           SKY/WX    TMP DP  RH WIND       PRES   REMARKS
MILWAUKEE      MOSUNNY   81  59  47 SW8       30.07S HX  81
6HR MIN TEMP:  67; 6HR MAX TEMP:  81;

WAUKESHA       MOSUNNY   77  61  57 SW9       30.09
MILWAUKEE/TIMM MOSUNNY   81  55  41 S6        30.07S HX  80
RACINE         SUNNY     80  60  50 S10       30.09S HX  81
6HR MIN TEMP:  65; 6HR MAX TEMP:  81;

BURLINGTON     SUNNY     78  62  57 S8        30.07F HX  80
6HR MIN TEMP:  56; 6HR MAX TEMP:  78;

KENOSHA        MOSUNNY   82  62  50 S9        30.08S HX  83
6HR MIN TEMP:  62; 6HR MAX TEMP:  82;

FOND DU LAC    MOSUNNY   79  62  56 S12       30.05F HX  80
6HR MIN TEMP:  65; 6HR MAX TEMP:  80;

SHEBOYGAN      PTSUNNY   79  64  60 S10       30.06F HX  81
6HR MIN TEMP:  64; 6HR MAX TEMP:  79;

WEST BEND      SUNNY     79  59  50 S8        30.07S HX  80
JUNEAU         MOSUNNY   77  62  58 S8        30.07F
6HR MIN TEMP:  62; 6HR MAX TEMP:  78;

$$

LSZ147-162-051900-
LAKE SUPERIOR

STATION/POSITION TIME  TEMP    WIND        PRES    WAVE
                       AIR SEA DIR/SP/G            HT/PER
                 (UTC) (F)     (DEG/KT/KT) (MB)    (FT/S)
W MID LAKE BUOY  1750   50 40  120/  8/  8 1012.9F   0
DEVILS ISLAND    1800          180/ 12/ 15 1011.2F
SAXON HARBOR     1700   80     200/  9/ 14 1012.2F
$$

LMZ867-665-643>646-051900-
LAKE MICHIGAN

STATION/POSITION TIME  TEMP    WIND        PRES    WAVE
                       AIR SEA DIR/SP/G            HT/PER
                 (UTC) (F)     (DEG/KT/KT) (MB)    (FT/S)
CHAMBERS ISLAND  1700   76     150/  4/  9 1016.6F
S GREEN BAY BUOY 1800   74 70  220/ 10/ 12 1018.2F
N MID LAKE BUOY  1750   54 49  200/ 12/ 12 1017.3S   2/ 4


USA.gov is the U.S. government's official web portal to all federal, state and local government web resources and services.